Weather History for NW Arkansas Airport, AR

Change the Weather History Date:

Tuesday, December 4, 2012

  Actual Average Record
Temperature  
Mean Temperature 52 °F -  
Max Temperature 64 °F - - ()
Min Temperature 39 °F - - ()
Degree Days  
Heating Degree Days 12    
Growing Degree Days 2 (Base 50)    
Moisture  
Dew Point 46 °F    
Average Humidity 76    
Maximum Humidity 100    
Minimum Humidity 44    
Precipitation  
Precipitation 0.83 in - - ()
Sea Level Pressure  
Sea Level Pressure 30.09 in    
Wind  
Wind Speed 10 mph (North)    
Max Wind Speed 17 mph    
Max Gust Speed 23 mph    
Visibility 8 miles    
Events Rain , Thunderstorm    
T = Trace of Precipitation, MM = Missing Value Source: NWS Daily Summary

Daily Weather History Graph

Daily Weather History Graph

Search for Another Location

Airport:

Trip Planner

Search our weather history database for the weather conditions in past years. The results will help you decide how hot, cold, wet, or windy it might be!

Date:

Astronomy

Dec. 04, 2012 Rise Set
Actual Time 7:13 AM CST 5:02 PM CST
Civil Twilight 6:44 AM CST 5:30 PM CST
Nautical Twilight 6:12 AM CST 6:02 PM CST
Astronomical Twilight 5:41 AM CST 6:33 PM CST
Moon 10:43 PM CST (12/4) 11:13 AM CST (12/4)
Length of Visible Light 10h 45m
Length of Day
9h 48m
Waning Gibbous, 69% of the Moon is Illuminated
Dec 4
Waning Gibbous
Dec 6
Last Quarter
Dec 13
New
Dec 19
First Quarter
Dec 28
Full

Hourly Weather History & Observations

Time (CST) Temp. Windchill Dew Point Humidity Pressure Visibility Wind Dir Wind Speed Gust Speed Precip Events Conditions
12:28 AM 64.4 °F - 60.8 °F 88% 29.96 in 10.0 mi SSW 13.8 mph - 0.00 in Thunderstorm Overcast
12:38 AM 64.4 °F - 60.8 °F 88% 29.96 in 10.0 mi South 15.0 mph - 0.00 in Thunderstorm Thunderstorm
12:53 AM 64.9 °F - 60.1 °F 84% 29.93 in 10.0 mi SSW 9.2 mph - 0.00 in Thunderstorm Thunderstorm
1:10 AM 62.6 °F - 60.8 °F 94% 29.97 in 6.0 mi West 8.1 mph 18.4 mph 0.01 in Rain , Thunderstorm Light Rain
1:41 AM 62.6 °F - 60.8 °F 94% 29.98 in 10.0 mi West 5.8 mph - 0.05 in Rain , Thunderstorm Light Rain
1:53 AM 62.1 °F - 61.0 °F 96% 29.94 in 3.0 mi SW 4.6 mph - 0.10 in Rain , Thunderstorm Light Thunderstorms and Rain
2:00 AM 62.6 °F - 60.8 °F 94% 29.98 in 7.0 mi WNW 4.6 mph - 0.00 in Rain , Thunderstorm Light Rain
2:13 AM 60.8 °F - 60.8 °F 100% 30.00 in 7.0 mi West 9.2 mph - 0.03 in Rain , Thunderstorm Light Thunderstorms and Rain
2:16 AM 60.8 °F - 60.8 °F 100% 29.99 in 1.8 mi WNW 4.6 mph - 0.15 in Rain , Thunderstorm Thunderstorms and Rain
2:27 AM 62.6 °F - 60.8 °F 94% 29.99 in 3.0 mi West 9.2 mph 16.1 mph 0.20 in Rain , Thunderstorm Thunderstorms and Rain
2:38 AM 60.8 °F - - N/A% 30.01 in 4.0 mi SSW 6.9 mph - 0.24 in Rain , Thunderstorm Light Thunderstorms and Rain
2:53 AM 60.1 °F - - N/A% 29.95 in 4.0 mi WSW 3.5 mph - 0.29 in Rain , Thunderstorm Thunderstorms and Rain
3:15 AM 60.8 °F - - N/A% 29.98 in 2.5 mi North 9.2 mph - 0.10 in Rain , Thunderstorm Heavy Rain
3:25 AM 59.0 °F - - N/A% 30.00 in 1.8 mi Calm Calm - 0.18 in Rain , Thunderstorm Heavy Thunderstorms and Rain
3:38 AM 59.0 °F - - N/A% 30.00 in 3.0 mi North 5.8 mph - 0.29 in Rain , Thunderstorm Light Thunderstorms and Rain
3:47 AM 59.0 °F - - N/A% 29.99 in 2.5 mi NE 3.5 mph - 0.38 in Rain , Thunderstorm Thunderstorms and Rain
3:49 AM 59.0 °F - - N/A% 29.99 in 2.5 mi NNE 5.8 mph - 0.39 in Rain , Thunderstorm Heavy Thunderstorms and Rain
3:53 AM 59.0 °F - - N/A% 29.97 in 2.0 mi North 9.2 mph - 0.42 in Rain , Thunderstorm Heavy Thunderstorms and Rain
3:57 AM 57.2 °F - - N/A% 30.01 in 3.0 mi North 17.3 mph 23.0 mph 0.01 in Rain , Thunderstorm Thunderstorms and Rain
4:10 AM 53.6 °F - - N/A% 30.03 in 10.0 mi North 16.1 mph - 0.01 in Rain , Thunderstorm Light Thunderstorms and Rain
4:51 AM 51.8 °F - - N/A% 30.03 in 10.0 mi North 17.3 mph - 0.02 in   Overcast
4:52 AM 52.0 °F - - N/A% 30.01 in 10.0 mi North 16.1 mph - 0.02 in   Overcast
5:19 AM 51.8 °F - - N/A% 30.05 in 10.0 mi North 16.1 mph - N/A   Overcast
5:53 AM 52.0 °F - - N/A% 30.05 in 10.0 mi North 11.5 mph - N/A   Overcast
6:53 AM 51.1 °F - - N/A% 30.09 in 10.0 mi NNE 9.2 mph 17.3 mph N/A   Overcast
7:16 AM 50.0 °F - 46.4 °F 87% 30.12 in 10.0 mi North 10.4 mph - N/A   Mostly Cloudy
7:23 AM 50.0 °F - 46.4 °F 87% 30.12 in 10.0 mi North 10.4 mph - N/A   Scattered Clouds
7:31 AM 51.8 °F - 46.4 °F 82% 30.13 in 10.0 mi NNE 10.4 mph - N/A   Mostly Cloudy
7:53 AM 51.1 °F - 46.9 °F 86% 30.12 in 10.0 mi North 15.0 mph - N/A   Overcast
8:53 AM 51.1 °F - 45.0 °F 80% 30.15 in 10.0 mi North 12.7 mph - N/A   Overcast
9:34 AM 50.0 °F - 42.8 °F 76% 30.19 in 10.0 mi North 13.8 mph - N/A   Scattered Clouds
9:53 AM 53.1 °F - 43.0 °F 69% 30.19 in 10.0 mi NNE 13.8 mph - N/A   Partly Cloudy
10:53 AM 55.9 °F - 46.0 °F 69% 30.19 in 9.0 mi NNE 12.7 mph - N/A   Clear
11:53 AM 57.9 °F - 43.0 °F 58% 30.20 in 10.0 mi North 13.8 mph - N/A   Clear
12:53 PM 57.0 °F - 37.0 °F 47% 30.18 in 9.0 mi NNE 8.1 mph - N/A   Clear
1:53 PM 59.0 °F - 37.0 °F 44% 30.19 in 10.0 mi North 16.1 mph - N/A   Clear
2:53 PM 59.0 °F - 37.0 °F 44% 30.19 in 10.0 mi North 12.7 mph - N/A   Clear
3:53 PM 57.9 °F - 36.0 °F 44% 30.22 in 7.0 mi NNE 11.5 mph - N/A   Clear
4:53 PM 53.1 °F - 37.0 °F 55% 30.24 in 10.0 mi North 8.1 mph - N/A   Clear
5:53 PM 46.9 °F - 36.0 °F 66% 30.25 in 10.0 mi North 8.1 mph - N/A   Clear
6:53 PM 46.0 °F 43.1 °F 34.0 °F 63% 30.26 in 10.0 mi North 5.8 mph - N/A   Clear
7:53 PM 45.0 °F 41.8 °F 34.0 °F 65% 30.27 in 10.0 mi NNE 5.8 mph - N/A   Clear
8:53 PM 44.1 °F 42.5 °F 34.0 °F 68% 30.30 in 10.0 mi NE 3.5 mph - N/A   Clear
9:53 PM 42.1 °F - 34.0 °F 73% 30.32 in 10.0 mi Calm Calm - N/A   Clear
10:53 PM 41.0 °F 38.0 °F 33.1 °F 73% 30.32 in 10.0 mi North 4.6 mph - N/A   Clear
11:53 PM 39.9 °F 36.7 °F 34.0 °F 79% 30.31 in 10.0 mi ENE 4.6 mph - N/A   Clear